[[{"header":{"parameterUnit":"m.s-1","parameterCategory":1,"la1":30.2991,"la2":30.254,"lo1":-89.0895,"lo2":-89.0444,"dy":0.0017,"dx":0.0017,"nx":28,"ny":28,"refTime":"2024-07-08T21:00:00:Z","depth":0,"parameterNumber":2,"parameterNumberName":"U-component_of_WINDS"},"data":[0,0,0,0,0,0,0,0,0,0,0,0,0,0,0,0,0,0,0,0,0,0,0,0,0,0,0,0,0,0,0,0,0,0,0,0,0,0,0,0,0,0,0,0,0,0,0,0,0,0,0,0,0,0,0,0,0,0,-2.5641,-2.5641,0,-2.5678,-2.5678,-2.5679,-2.5673,-2.5673,-2.5672,-2.5671,-2.5709,-2.5711,-2.5712,0,0,0,0,0,0,0,0,0,0,0,0,0,-2.5567,-2.5568,-2.5641,-2.5641,-2.5642,-2.5678,-2.5678,-2.5679,-2.5673,-2.5673,-2.5672,-2.5671,-2.5709,-2.5711,-2.5713,0,0,0,0,0,0,0,0,0,0,0,0,0,-2.5601,-2.5569,-2.5641,-2.5643,-2.5644,-2.5678,-2.5678,-2.5679,-2.5674,-2.5673,-2.5672,-2.5671,-2.5708,-2.571,-2.5713,-2.5746,0,0,-2.572,-2.5721,0,0,0,0,0,0,0,0,-2.5599,-2.5604,-2.5643,-2.5643,-2.5644,-2.567,-2.5666,-2.5702,-2.5674,-2.5662,-2.5671,-2.567,-2.5697,-2.57,-2.5709,-2.5748,-2.575,-2.572,-2.5722,-2.5723,-2.5723,0,0,0,0,0,0,0,-2.5597,-2.5602,-2.5656,-2.5643,-2.5644,-2.5643,-2.5647,-2.5673,-2.5684,-2.5663,-2.5663,-2.5667,-2.5697,-2.5707,-2.571,-2.575,-2.572,-2.5722,-2.5724,-2.5725,-2.582,-2.5821,0,0,0,0,0,0,-2.5593,-2.56,-2.5654,-2.5657,-2.5619,-2.5645,-2.565,-2.5663,-2.5684,-2.5687,-2.5668,-2.5667,-2.5703,-2.5707,-2.5711,-2.5752,-2.5723,-2.5725,-2.5726,-2.5819,-2.582,-2.5821,0,0,0,0,0,0,-2.5592,-2.5598,-2.5653,-2.5628,-2.5635,-2.5648,-2.5662,-2.5664,-2.5673,-2.5688,-2.569,-2.5676,-2.5703,-2.5708,-2.5738,-2.5753,-2.5726,-2.5728,-2.5817,-2.5819,-2.5821,-2.5834,0,0,0,0,0,0,-2.559,-2.5598,-2.561,-2.5629,-2.5637,-2.5678,-2.5663,-2.5665,-2.5678,-2.5676,-2.5696,-2.5698,-2.5702,-2.5734,-2.574,-2.5756,-2.573,-2.5816,-2.5818,-2.582,-2.5832,-2.5836,-2.5839,0,0,0,0,0,-2.5587,-2.5612,-2.5611,-2.5617,-2.5652,-2.5679,-2.5684,-2.5688,-2.5679,-2.5692,-2.5701,-2.5697,-2.5751,-2.5737,-2.5744,-2.5761,-2.5815,-2.5817,-2.582,-2.583,-2.5835,-2.5839,0,0,0,0,0,0,-2.5594,-2.5614,-2.5613,-2.5645,-2.566,-2.5678,-2.5694,-2.5693,-2.5711,-2.5709,-2.5715,-2.5719,-2.5749,-2.5758,-2.5743,-2.5795,-2.5782,-2.5786,-2.5787,-2.5792,-2.5795,-2.5792,-2.5732,0,0,0,0,0,-2.56,-2.562,-2.5636,-2.5663,-2.5671,-2.5681,-2.5693,-2.5696,-2.5712,-2.5718,-2.573,-2.5746,-2.5767,-2.578,-2.58,-2.5834,-2.5838,-2.5849,-2.5853,-2.5855,-2.5858,-2.5877,-2.5882,-2.5829,-2.5829,-2.5829,0,0,-2.5611,-2.5624,-2.5636,-2.5665,-2.5677,-2.5698,-2.5687,-2.5709,-2.5725,-2.5722,-2.575,-2.576,-2.5779,-2.5811,-2.5826,-2.5819,-2.5874,-2.5858,-2.586,-2.5862,-2.588,-2.5885,-2.589,-2.5831,-2.5831,-2.583,0,0,-2.5641,-2.5654,-2.5677,-2.569,-2.5709,-2.5717,-2.5723,-2.5741,-2.5747,-2.5777,-2.5775,-2.5794,-2.583,-2.5843,-2.5854,-2.5893,-2.589,-2.59,-2.5916,-2.5935,-2.5939,-2.5943,-2.5956,-2.5961,-2.5903,-2.5903,-2.5903,0,-2.5652,-2.5683,-2.5689,-2.5712,-2.5725,-2.5725,-2.5749,-2.5761,-2.5786,-2.5795,-2.5788,-2.5833,-2.5845,-2.5881,-2.5891,-2.59,-2.5907,-2.5896,-2.5938,-2.5942,-2.5946,-2.5958,-2.5964,-2.5904,-2.5904,-2.5903,-2.5903,0,-2.5696,-2.5718,-2.5735,-2.5759,-2.5774,-2.5797,-2.5807,-2.5822,-2.5824,-2.5832,-2.5863,-2.5878,-2.5901,-2.5911,-2.5913,-2.5947,-2.5943,-2.5937,-2.5923,-2.5952,-2.5964,-2.5969,-2.5905,-2.5905,-2.5904,-2.5904,0,0,-2.573,-2.5759,-2.5765,-2.5776,-2.5798,-2.5815,-2.584,-2.5863,-2.5875,-2.5893,-2.5913,-2.5945,-2.594,-2.5953,-2.5957,-2.5974,-2.6003,-2.5966,-2.5967,-2.5972,-2.6042,-2.6045,-2.6051,-2.6003,-2.6004,-2.6004,-2.604,0,-2.5762,-2.5804,-2.5811,-2.5848,-2.5869,-2.587,-2.5891,-2.5907,-2.5916,-2.5936,-2.5946,-2.5968,-2.596,-2.5968,-2.5985,-2.5996,-2.6017,-2.5994,-2.6021,-2.6022,-2.6015,-2.6057,-2.606,-2.6093,-2.6045,-2.6046,-2.6047,0,-2.5804,-2.5823,-2.5862,-2.5883,-2.5892,-2.5911,-2.5933,-2.5952,-2.5971,-2.5976,-2.5992,-2.5995,-2.6021,-2.6008,-2.6044,-2.6028,-2.604,-2.6047,-2.6049,-2.605,-2.6035,-2.6059,-2.6104,-2.6108,-2.6054,-2.6054,-2.6053,0,-2.5824,-2.586,-2.5888,-2.5898,-2.5923,-2.5936,-2.5947,-2.5965,-2.5979,-2.5999,-2.6009,-2.6032,-2.6044,-2.6062,-2.6071,-2.6061,-2.6106,-2.6094,-2.6112,-2.6111,-2.6119,-2.6118,-2.6166,-2.613,-2.613,-2.613,-2.6129,0,-2.5858,-2.5882,-2.5897,-2.5914,-2.5942,-2.595,-2.5977,-2.5988,-2.6005,-2.6025,-2.6028,-2.6046,-2.6058,-2.6078,-2.6086,-2.6115,-2.6121,-2.6126,-2.6127,-2.6125,-2.6124,-2.6131,-2.6129,-2.6131,-2.6131,-2.613,-2.613,0,-2.5883,-2.5895,-2.5926,-2.5947,-2.5954,-2.5973,-2.5991,-2.6008,-2.6019,-2.6044,-2.605,-2.6066,-2.609,-2.6102,-2.6132,-2.6138,-2.617,-2.6171,-2.6163,-2.6163,-2.618,-2.6178,-2.6233,-2.624,-2.62,-2.6201,-2.6201,0,-2.5904,-2.5922,-2.5946,-2.5959,-2.5971,-2.5993,-2.6007,-2.6018,-2.6032,-2.6057,-2.6071,-2.6096,-2.6116,-2.6156,-2.617,-2.6194,-2.6194,-2.6212,-2.6198,-2.6195,-2.6194,-2.6192,-2.6194,-2.6214,-2.6214,-2.6215,-2.6215,0,-2.5938,-2.5943,-2.5964,-2.5987,-2.6004,-2.6023,-2.6041,-2.6052,-2.6066,-2.6083,-2.6108,-2.6124,-2.6155,-2.618,-2.6205,-2.6217,-2.6218,-2.622,-2.6225,-2.6222,-2.6216,-2.6219,-2.6169,-2.6218,-2.6218,-2.6217,-2.6217,-2.6217,-2.5961,-2.5978,-2.5997,-2.602,-2.6036,-2.6053,-2.607,-2.6083,-2.6104,-2.6131,-2.6136,-2.6163,-2.6184,-2.6217,-2.6231,-2.6252,-2.6248,-2.6256,-2.6257,-2.6259,-2.6259,-2.6214,-2.6257,-2.6257,-2.6257,-2.6257,-2.6257,0,-2.5995,-2.6008,-2.603,-2.6055,-2.6074,-2.6074,-2.6095,-2.6111,-2.6134,-2.6153,-2.6173,-2.6203,-2.6228,-2.6245,-2.627,-2.6284,-2.6286,-2.629,-2.6289,-2.6292,-2.6262,-2.6254,-2.6289,-2.6289,-2.6289,-2.6289,-2.6289,-2.6289,-2.6015,-2.6043,-2.6051,-2.6087,-2.61,-2.6126,-2.6138,-2.6155,-2.617,-2.6203,-2.6223,-2.6235,-2.6253,-2.628,-2.6303,-2.6308,-2.6316,-2.6321,-2.6326,-2.6297,-2.6294,-2.629,-2.6283,-2.6323,-2.6323,-2.6353,-2.6354,-2.6354]},{"header":{"parameterUnit":"m.s-1","parameterCategory":1,"la1":30.2991,"la2":30.254,"lo1":-89.0895,"lo2":-89.0444,"dy":0.0017,"dx":0.0017,"nx":28,"ny":28,"refTime":"2024-07-08T21:00:00:Z","depth":0,"parameterNumber":3,"parameterNumberName":"V-component_of_WINDS"},"data":[0,0,0,0,0,0,0,0,0,0,0,0,0,0,0,0,0,0,0,0,0,0,0,0,0,0,0,0,0,0,0,0,0,0,0,0,0,0,0,0,0,0,0,0,0,0,0,0,0,0,0,0,0,0,0,0,0,0,4.807,4.8069,0,4.7982,4.7981,4.798,4.7948,4.7948,4.7948,4.7949,4.7852,4.7849,4.7846,0,0,0,0,0,0,0,0,0,0,0,0,0,4.8204,4.8201,4.807,4.8069,4.8068,4.7983,4.7981,4.798,4.7948,4.7948,4.7948,4.7949,4.7853,4.7849,4.7846,0,0,0,0,0,0,0,0,0,0,0,0,0,4.8134,4.8201,4.807,4.8042,4.8038,4.7983,4.7981,4.798,4.7948,4.7948,4.7948,4.7949,4.7854,4.785,4.7846,4.781,0,0,4.7833,4.7831,0,0,0,0,0,0,0,0,4.8138,4.8129,4.8047,4.8043,4.804,4.7977,4.7993,4.7923,4.7947,4.7982,4.7949,4.7949,4.7893,4.7885,4.7867,4.7806,4.7802,4.7832,4.783,4.7828,4.7827,0,0,0,0,0,0,0,4.8142,4.8132,4.8035,4.8046,4.8041,4.8031,4.8022,4.7979,4.7935,4.7979,4.7976,4.7967,4.7891,4.7872,4.7865,4.78,4.7832,4.7828,4.7826,4.7824,4.7705,4.7704,0,0,0,0,0,0,4.8153,4.8137,4.8038,4.8033,4.8091,4.8028,4.8018,4.7996,4.7936,4.7927,4.7966,4.7965,4.7879,4.787,4.7861,4.7816,4.7828,4.7824,4.7821,4.7706,4.7705,4.7704,0,0,0,0,0,0,4.8156,4.8145,4.8042,4.8084,4.807,4.8026,4.8002,4.7994,4.7975,4.7927,4.7918,4.7956,4.7879,4.7867,4.7824,4.7813,4.7822,4.7818,4.7706,4.7705,4.7705,4.7726,0,0,0,0,0,0,4.816,4.8146,4.8133,4.8084,4.8068,4.8007,4.8001,4.7992,4.7969,4.7967,4.7914,4.7906,4.7878,4.783,4.782,4.7807,4.7815,4.7707,4.7706,4.7705,4.7726,4.7726,4.7726,0,0,0,0,0,4.8165,4.8141,4.8133,4.8121,4.8052,4.8007,4.7997,4.7968,4.7968,4.7954,4.7923,4.7907,4.7816,4.7826,4.7814,4.78,4.7708,4.7706,4.7705,4.7726,4.7726,4.7726,0,0,0,0,0,0,4.8188,4.8134,4.8124,4.8084,4.8051,4.8001,4.7983,4.7969,4.7932,4.7932,4.7895,4.7883,4.7842,4.7816,4.7829,4.7762,4.776,4.7757,4.7781,4.778,4.778,4.7787,4.7811,0,0,0,0,0,4.8189,4.8159,4.8113,4.8082,4.8066,4.8027,4.8007,4.7987,4.795,4.7935,4.79,4.7863,4.7825,4.7801,4.7764,4.7722,4.771,4.7706,4.7706,4.7706,4.7703,4.7679,4.7677,4.77,4.77,4.77,0,0,4.8189,4.8156,4.8139,4.8086,4.8057,4.8025,4.8015,4.7982,4.7957,4.7929,4.7886,4.786,4.7815,4.7772,4.7752,4.7749,4.7694,4.7705,4.7705,4.7702,4.7677,4.7675,4.7673,4.7699,4.7699,4.7699,0,0,4.8174,4.8147,4.8118,4.809,4.8049,4.8023,4.8017,4.797,4.7952,4.7909,4.7887,4.7856,4.7793,4.7762,4.7739,4.7713,4.7697,4.7702,4.7701,4.7678,4.7676,4.7674,4.7665,4.7662,4.7699,4.7699,4.7699,0,4.8179,4.8133,4.8105,4.8073,4.805,4.8025,4.7995,4.7969,4.7916,4.79,4.7898,4.7819,4.7787,4.7737,4.7732,4.7713,4.7703,4.7707,4.7679,4.7677,4.7675,4.7665,4.7662,4.77,4.77,4.77,4.77,0,4.8141,4.8109,4.809,4.8043,4.8018,4.7987,4.7953,4.793,4.7913,4.7888,4.7844,4.7805,4.7761,4.7747,4.7729,4.7694,4.7694,4.7687,4.7684,4.7674,4.7664,4.7661,4.7701,4.7701,4.7701,4.77,0,0,4.8137,4.8076,4.807,4.8048,4.8,4.7974,4.7941,4.79,4.7881,4.7845,4.7816,4.7764,4.7757,4.773,4.7708,4.7688,4.7671,4.7683,4.7681,4.7682,4.7629,4.7636,4.7632,4.766,4.7659,4.7659,4.7633,0,4.8115,4.8059,4.8034,4.7988,4.7957,4.7934,4.7906,4.7872,4.7848,4.7817,4.7789,4.7753,4.7746,4.773,4.7709,4.7677,4.766,4.7679,4.7631,4.763,4.7643,4.7627,4.7633,4.7611,4.7629,4.7629,4.7628,0,4.8082,4.805,4.8002,4.7959,4.7945,4.7921,4.7881,4.7852,4.7813,4.7797,4.7768,4.7747,4.7711,4.7711,4.766,4.7674,4.7653,4.7634,4.7633,4.7626,4.7628,4.762,4.7603,4.76,4.7622,4.7623,4.7623,0,4.8084,4.8028,4.7992,4.7975,4.7923,4.7907,4.7884,4.7846,4.7823,4.7787,4.7772,4.7732,4.7709,4.7678,4.7646,4.765,4.7598,4.7596,4.7582,4.7583,4.7571,4.7572,4.755,4.7558,4.7558,4.7559,4.7559,0,4.8063,4.8034,4.7993,4.7971,4.7938,4.7908,4.7876,4.7851,4.7818,4.7789,4.7766,4.7739,4.77,4.7667,4.7642,4.7603,4.7593,4.7578,4.7571,4.758,4.7582,4.7565,4.7565,4.7558,4.7558,4.7558,4.7558,0,4.8059,4.803,4.799,4.7946,4.7934,4.7911,4.7872,4.7849,4.7824,4.7788,4.7778,4.7738,4.7699,4.7665,4.7613,4.7596,4.7556,4.7548,4.757,4.7566,4.7554,4.7556,4.752,4.7514,4.7527,4.7527,4.7527,0,4.8047,4.8025,4.7979,4.796,4.7939,4.7907,4.7884,4.7853,4.783,4.7785,4.7767,4.7727,4.7693,4.7632,4.7597,4.7556,4.7547,4.7538,4.7541,4.755,4.7547,4.7549,4.7546,4.7537,4.7538,4.7538,4.7538,0,4.8029,4.8016,4.7985,4.795,4.7924,4.7893,4.7862,4.7847,4.781,4.7784,4.7746,4.772,4.7668,4.7628,4.7584,4.7559,4.7541,4.7537,4.7532,4.754,4.7553,4.7546,4.7569,4.7538,4.7538,4.7538,4.7538,4.7538,4.802,4.8,4.7965,4.7932,4.7905,4.7877,4.7854,4.7827,4.7795,4.7752,4.7735,4.7695,4.7657,4.7597,4.7572,4.7539,4.7536,4.7528,4.7526,4.7524,4.7526,4.7559,4.753,4.753,4.753,4.753,4.753,0,4.8001,4.7978,4.7948,4.7906,4.7879,4.7868,4.7833,4.7811,4.7777,4.7744,4.7712,4.7668,4.7629,4.7592,4.7551,4.7532,4.7523,4.7522,4.7523,4.7517,4.7531,4.754,4.753,4.753,4.753,4.753,4.753,4.753,4.7988,4.7953,4.7936,4.7888,4.7864,4.7827,4.7808,4.7781,4.7755,4.7707,4.7676,4.7653,4.7617,4.7574,4.7538,4.7527,4.7513,4.7514,4.7502,4.7515,4.7516,4.7516,4.7524,4.7512,4.7512,4.7491,4.7491,4.749]}]]